Location: Brunembert
(50.7122°N, 1.8935°E)
Time: 18:50:51
(UTC+00:00)

X-37B - Pass Details

Date: 27 September 2021
Orbit: 385 x 389 km, 45.0° (Epoch: 17 October)

Event Time Altitude Azimuth Distance (km) Brightness Sun altitude
Exits shadow 03:21:50 16° 130° (SE) 1,103 3.1 -22.9°
Drops below altitude 10° 03:22:58 10° 113° (ESE) 1,414 3.9 -22.8°
Sets 03:25:21 0° 96° (E) 2,271 5.4 -22.4°
